Location: Cluj-Napoca
(46.7712°N, 23.6236°E)
Time: 18:24:26
(UTC+03:00)

ISS - Pass Details

Date: 27 May 2020
Orbit: 417 x 420 km, 51.6° (Epoch: 26 May)

Event Time Altitude Azimuth Distance (km) Brightness Sun altitude
Rises 23:22:43 0° 295° (WNW) 2,368 1.0 -16.6°
Reaches altitude 10° 23:24:50 10° 293° (WNW) 1,502 -0.2 -16.7°
Maximum altitude 23:28:11 70° 210° (SSW) 450 -3.8 -17.0°
Enters shadow 23:28:52 51° 147° (SSE) 537 -3.7 -17.1°
